AirNav   Everest Fuels
 
 637 users online  

SN34 Rucker Airport
Clearwater, Kansas, USA

GOING TO CLEARWATER?


FAA INFORMATION EFFECTIVE 05 DECEMBER 2019

Location

FAA Identifier: SN34
Lat/Long: 37-34-30.0580N 097-29-31.1690W
37-34.500967N 097-29.519483W
37.5750161,-97.4919914
(estimated)
Elevation: 1300 ft. / 396 m (estimated)
Variation: 07E (1985)
From city: 4 miles N of CLEARWATER, KS
Time zone: UTC -6 (UTC -5 during Daylight Saving Time)
Zip code: 67026

Airport Operations

Airport use: Private use. Permission required prior to landing
Activation date: 04/1971
Control tower: no
ARTCC: KANSAS CITY CENTER
FSS: WICHITA FLIGHT SERVICE STATION
Attendance: UNATNDD
Wind indicator: no
Segmented circle: no

Airport Communications

WX ASOS at ICT (5 nm NE): PHONE 316-945-8022
WX AWOS-3PT at BEC (15 nm NE): 119.45 (316-515-7116)
WX AWOS-3 at EGT (16 nm S): 118.875 (620-326-2470)
WX ASOS at AAO (17 nm NE): 134.025 (316-636-2541)

Nearby radio navigation aids

VOR radial/distance  VOR name  Freq  Var
ICTr150/11.1WICHITA VORTAC113.8007E
HUTr136/32.9HUTCHINSON VOR/DME116.8004E

 
NDB name  Hdg/Dist  Freq  Var  ID
PICHE260/1.733204EIC .. -.-.
NEWTON193/31.128106EEWK . .-- -.-

Airport Services

Runway Information

Runway 17/35

Dimensions: 2600 x 100 ft. / 792 x 30 m
Surface: turf
RUNWAY 17  RUNWAY 35
Traffic pattern: rightleft

Airport Ownership and Management from official FAA records

Ownership: Privately-owned
Owner: RUCKER FIELD ASSOCIATION
13149 WEST 63RD ST SOUTH
CLEARWATER, KS 67026
Phone (620) 545-7070
Manager: AARON TOBIAS
13149 WEST 63RD ST SOUTH
CLEARWATER, KS 67026
Phone (620) 545-7070

Airport Operational Statistics

Aircraft based on the field: 6
Single engine airplanes: 6
    

Additional Remarks

RY 35 272 FT RADIO TWR 1100 FT W OF NORTH END OF RY.
CTC ICT TWR FOR ADZYS, DUE TO CLOSE PROXIMITY TO CLASS C SFC ASP.
RWY 17- RP ONLY
FOR CD CTC WICHITA APCH AT 316-350-1520.

Instrument Procedures

There are no published instrument procedures at SN34.

Some nearby airports with instrument procedures:

KICT - Wichita Dwight D Eisenhower National Airport (5 nm NE)
KIAB - Mc Connell Air Force Base (11 nm E)
KCEA - Cessna Aircraft Field Airport (12 nm E)
KBEC - Beech Factory Airport (15 nm NE)
KEGT - Wellington Municipal Airport (16 nm S)
KAAO - Colonel James Jabara Airport (17 nm NE)
 
Loc | Ops | Rwys | IFR | FBO | Links
Com | Nav | Svcs | Stats | Notes

Kansas City Aviation Department
 
Area around SN34 (Rucker Airport)
 
Road maps at: MapQuest Bing Google
 
Aerial photo
No photo
 
Sectional chart

 
Airport distance calculator
Flying to Rucker Airport? Find the distance to fly.

From to SN34

Sunrise and sunset
Times for 15-Dec-2019
 Local
(UTC-6)
 Zulu
(UTC)
Morning civil twilight07:0913:09
Sunrise07:3913:39
Sunset17:1223:12
Evening civil twilight17:4123:41

Current date and time
Zulu (UTC)  15-Dec-2019 14:01:24
Local (UTC-6)  15-Dec-2019 08:01:24
 
METAR
KICT 
5nm NE 
151353Z 05010KT 7SM -SN SCT022 OVC039 M02/M05 A2988 RMK AO2 PLE43 SLP129 P0000 T10171050
KIAB 
11nm E 
151356Z AUTO 06011KT 10SM OVC035 M03/M05 A2988 RMK AO2 SLP134 T10261054 $
KBEC 
15nm NE 
151355Z AUTO 05012G15KT 10SM OVC041 M03/M05 A2988 RMK AO2 T10281050
KAAO 
17nm NE 
151354Z AUTO 06011G17KT 8SM FEW008 OVC042 M03/M05 A2989 RMK AO2 SNE00 SLP135 P0000 T10331050
TAF
KICT 
5nm NE 
151125Z 1512/1612 06011KT P6SM -PLSN OVC040 FM151500 05010KT 2SM -SN OVC015 TEMPO 1515/1518 -FZRA FM152000 02010KT 3SM -FZRASN OVC010 FM160600 01009KT P6SM BKN020 FM160800 01010KT P6SM -SN BKN015
KIAB 
11nm E 
141800Z 1418/1524 04009KT 9999 SCT080 QNH2985INS BECMG 1508/1509 07012G18KT 9999 FEW017 QNH2985INS BECMG 1511/1512 07018KT 9999 SCT017 510023 QNH2982INS BECMG 1512/1513 07018KT 9000 VCSH SCT010 BKN020 QNH2981INS BECMG 1517/1518 05012KT 9000 -SN OVC009 510803 QNH2980INS BECMG 1523/1524 01015KT 9999 NSW OVC010 510553 QNH2986INS TX03/1420Z TNM02/1507Z
NOTAMs
Click for the latest NOTAMs
NOTAMs are issued by the DoD/FAA and will open in a separate window not controlled by AirNav.

 

 
 

Would you like to see your business listed on this page?

 If your business provides an interesting product or service to pilots, flight crews, aircraft, or users of the Rucker Airport, you should consider listing it here.  To start the listing process, click on the button below
 
Add a business
 

Other Pages about Rucker Airport

Update a link
 
Copyright © AirNav, LLC. All rights reserved. Privacy Policy  Contact